GW5728 Weather Reports


time (UTC)temp
C
wind
direction
speed
KPH
gust
KPH
rain 1hr
cm
rain 24hr
cm
rain mn
cm
humidity
%
barometer
mb
20260503223550 33 198 1.6 17.7 0.00 0.00 0.00 29 1048.9
20260503223050 33 208 1.6 17.7 0.00 0.00 0.00 31 1062.2
20260503222550 33 245 3.2 17.7 0.00 0.00 0.00 30 1069.8
20260503222051 33 289 3.2 17.7 0.00 0.00 0.00 31 1070.6
20260503221551 33 245 3.2 17.7 0.00 0.00 0.00 28 1073.6
20260503221050 33 220 3.2 17.7 0.00 0.00 0.00 27 1068.2
20260503220550 33 227 1.6 17.7 0.00 0.00 0.00 28 1071.1
20260503215535 33 228 3.2 17.7 0.00 0.00 0.00 31 1068.8
20260503215035 32 12 1.6 17.7 0.00 0.00 0.00 38 1068.4
20260503214536 32 251 3.2 17.7 0.00 0.00 0.00 31 1068.9
20260503214035 32 274 1.6 17.7 0.00 0.00 0.00 33 1063.3
20260503213536 32 276 3.2 17.7 0.00 0.00 0.00 32 1066.6
20260503213035 32 264 3.2 17.7 0.00 0.00 0.00 33 1068.7
20260503212536 32 272 1.6 17.7 0.00 0.00 0.00 35 1063.8
20260503211521 32 285 1.6 17.7 0.00 0.00 0.00 34 1075.1
20260503210505 31 294 3.2 17.7 0.00 0.00 0.00 38 1069.3
20260503205451 31 239 1.6 17.7 0.00 0.00 0.00 33 1064.4
20260503204951 31 273 3.2 17.7 0.00 0.00 0.00 37 1066.0
20260503204451 31 217 1.6 17.7 0.00 0.00 0.00 37 1063.7
20260503203951 31 230 3.2 17.7 0.00 0.00 0.00 38 1065.5
20260503203451 31 294 1.6 17.7 0.00 0.00 0.00 38 1068.9
20260503202951 31 232 1.6 17.7 0.00 0.00 0.00 37 1068.7
20260503202451 30 276 4.8 17.7 0.00 0.00 0.00 38 1068.5
20260503201951 30 216 1.6 17.7 0.00 0.00 0.00 38 1069.0
20260503201451 30 241 3.2 17.7 0.00 0.00 0.00 38 1064.4
20260503200436 30 262 3.2 17.7 0.00 0.00 0.00 43 1070.8
20260503195936 30 212 1.6 17.7 0.00 0.00 0.00 40 1068.3
20260503194921 30 286 1.6 17.7 0.00 0.00 0.00 44 1079.6
20260503194421 30 273 1.6 17.7 0.00 0.00 0.00 46 1082.7
20260503193406 29 302 1.6 17.7 0.00 0.00 0.00 44 1080.4
20260503192906 29 328 1.6 17.7 0.00 0.00 0.00 49 1075.6
20260503192406 28 308 1.6 17.7 0.00 0.00 0.00 45 1072.6
20260503191906 28 320 1.6 17.7 0.00 0.00 0.00 46 1081.0
20260503191406 28 307 1.6 17.7 0.00 0.00 0.00 48 1088.5
20260503190906 28 314 1.6 17.7 0.00 0.00 0.00 49 1083.7
20260503190406 28 320 1.6 17.7 0.00 0.00 0.00 48 1086.6
20260503185906 28 215 1.6 17.7 0.00 0.00 0.00 51 1075.1
20260503185406 27 330 1.6 17.7 0.00 0.00 0.00 51 1076.2
20260503184906 27 301 1.6 17.7 0.00 0.00 0.00 48 1076.4
20260503184406 27 248 1.6 17.7 0.00 0.00 0.00 50 1069.7
20260503183905 26 280 1.6 17.7 0.00 0.00 0.00 51 1068.5
20260503182850 26 254 1.6 17.7 0.00 0.00 0.00 49 1067.5
20260503182350 26 100 1.6 17.7 0.00 0.00 0.00 51 1056.9
20260503181850 26 302 1.6 17.7 0.00 0.00 0.00 54 1068.4
20260503181350 26 246 3.2 17.7 0.00 0.00 0.00 49 1057.5
20260503180850 26 328 0.0 17.7 0.00 0.00 0.00 52 1059.3
20260503180350 25 317 1.6 17.7 0.00 0.00 0.00 50 1058.8
20260503175850 25 227 3.2 17.7 0.00 0.00 0.00 51 1065.3
20260503175350 25 166 3.2 17.7 0.00 0.00 0.00 50 1055.3
20260503174849 25 295 1.6 17.7 0.00 0.00 0.00 54 1060.6
20260503174349 24 199 1.6 17.7 0.00 0.00 0.00 52 1052.6
20260503173848 24 200 3.2 17.7 0.00 0.00 0.00 53 1054.4
20260503172318 24 237 1.6 17.7 0.00 0.00 0.00 57 1053.2
20260503171818 24 192 0.0 17.7 0.00 0.00 0.00 58 1061.7
20260503171318 23 256 1.6 17.7 0.00 0.00 0.00 60 1070.0
20260503170818 23 225 0.0 17.7 0.00 0.00 0.00 60 1070.4
20260503170318 23 233 0.0 17.7 0.00 0.00 0.00 58 1075.3
20260503160218 20 89 0.0 17.7 0.00 0.00 0.00 67 1009.1
20260503150648 17 163 0.0 17.7 0.00 0.00 0.00 81 1039.2
20260503150149 16 163 0.0 17.7 0.00 0.00 0.00 83 1039.2
20260503131018 9 163 0.0 17.7 0.00 0.00 0.00 95 1038.9
20260503130519 9 163 0.0 17.7 0.00 0.00 0.00 95 1038.9
20260503110449 10 163 0.0 17.7 0.00 0.00 0.00 93 1038.8
20260503090404 12 163 0.0 17.7 0.00 0.00 0.00 92 1038.8
20260503081349 13 163 0.0 17.7 0.00 0.00 0.00 90 1038.7
20260503080849 13 163 0.0 17.7 0.00 0.00 0.00 90 1038.6
20260503072834 13 163 0.0 17.7 0.00 0.00 0.00 88 1038.5
20260503072335 14 163 0.0 17.7 0.00 0.00 0.00 89 1038.5
20260503071834 14 163 0.0 17.7 0.00 0.00 0.00 88 1038.6
20260503071334 14 163 0.0 17.7 0.00 0.00 0.00 88 1038.7
20260503070320 14 203 0.0 17.7 0.00 0.00 0.00 88 1031.7
20260503060304 15 84 0.0 17.7 0.00 0.00 0.00 85 1005.0
20260503054804 16 84 0.0 17.7 0.00 0.00 0.00 84 1005.1
20260503054305 16 84 0.0 17.7 0.00 0.00 0.00 85 1005.1
20260503053805 16 84 0.0 17.7 0.00 0.00 0.00 84 1005.1
20260503053304 16 84 0.0 17.7 0.00 0.00 0.00 83 1005.1
20260503052805 16 84 0.0 17.7 0.00 0.00 0.00 83 1005.2
20260503052305 16 84 0.0 17.7 0.00 0.00 0.00 83 1005.2
20260503051805 16 84 0.0 17.7 0.00 0.00 0.00 82 1005.2
20260503051305 16 84 0.0 17.7 0.00 0.00 0.00 82 1005.3
20260503050805 16 84 0.0 17.7 0.00 0.00 0.00 82 1005.3
20260503050305 16 84 0.0 17.7 0.00 0.00 0.00 82 1005.4
20260503045805 16 84 0.0 17.7 0.00 0.00 0.00 81 1005.5
20260503045305 16 84 0.0 17.7 0.00 0.00 0.00 80 1005.6
20260503044805 17 84 0.0 17.7 0.00 0.00 0.00 80 1005.7
20260503044305 17 84 0.0 17.7 0.00 0.00 0.00 79 1006.0
20260503043805 17 84 0.0 17.7 0.00 0.00 0.00 78 1006.4
20260503043305 17 84 0.0 17.7 0.00 0.00 0.00 78 1007.0
20260503042805 17 84 0.0 17.7 0.00 0.00 0.00 77 1008.2
20260503042305 17 84 0.0 17.7 0.00 0.00 0.00 76 1010.4
20260503041805 18 84 0.0 17.7 0.00 0.00 0.00 75 1014.5
20260503041305 18 84 0.0 17.7 0.00 0.00 0.00 74 1022.4
20260503040805 18 84 0.0 17.7 0.00 0.00 0.00 74 1038.0
20260503040305 18 83 0.0 17.7 0.00 0.00 0.00 73 1069.7
20260503035805 18 309 0.0 17.7 0.00 0.00 0.00 74 1100.4
20260503035305 18 309 0.0 17.7 0.00 0.00 0.00 72 1099.2
20260503034805 19 293 0.0 17.7 0.00 0.00 0.00 72 1094.7
20260503034305 19 293 0.0 17.7 0.00 0.00 0.00 71 1095.1
20260503033805 20 293 0.0 17.7 0.00 0.00 0.00 69 1095.6
20260503033305 20 293 0.0 17.7 0.00 0.00 0.00 68 1096.6
20260503032805 20 293 0.0 17.7 0.00 0.00 0.00 68 1098.8
20260503032305 20 320 0.0 17.7 0.00 0.00 0.00 66 1102.6
20260503031805 20 321 0.0 17.7 0.00 0.00 0.00 66 1099.4
20260503030750 21 288 0.0 17.7 0.00 0.00 0.00 67 1090.7
20260503030250 21 288 0.0 17.7 0.00 0.00 0.00 64 1089.6
20260503025750 21 288 0.0 17.7 0.00 0.00 0.00 62 1087.5
20260503024735 22 253 0.0 17.7 0.00 0.00 0.00 58 1081.0
20260503024235 22 305 0.0 17.7 0.00 0.00 0.00 58 1089.1
20260503023220 23 230 0.0 17.7 0.00 0.00 0.00 54 1080.4
20260503022720 23 229 0.0 17.7 0.00 0.00 0.00 55 1087.8
20260503021705 23 288 1.6 17.7 0.00 0.00 0.00 52 1088.5
20260503021205 24 297 1.6 17.7 0.00 0.00 0.00 53 1086.6
20260503020705 24 227 1.6 17.7 0.00 0.00 0.00 53 1084.7
20260503020205 25 304 0.0 17.7 0.00 0.00 0.00 51 1088.3
20260503015705 25 348 1.6 17.7 0.00 0.00 0.00 55 1072.8
20260503014650 25 212 0.0 17.7 0.00 0.00 0.00 52 1071.7
20260503014150 25 277 1.6 17.7 0.00 0.00 0.00 50 1075.3
20260503013650 25 307 1.6 17.7 0.00 0.00 0.00 51 1067.9
20260503013150 25 308 1.6 17.7 0.00 0.00 0.00 50 1073.4
20260503012135 25 169 0.0 17.7 0.00 0.00 0.00 49 1051.5
20260503011635 25 127 0.0 17.7 0.00 0.00 0.00 49 1049.7
20260503011135 26 179 1.6 17.7 0.00 0.00 0.00 49 1067.3
20260503010120 26 352 0.0 17.7 0.00 0.00 0.00 49 1081.8
20260503005620 26 287 1.6 17.7 0.00 0.00 0.00 48 1081.7
20260503005120 26 295 1.6 17.7 0.00 0.00 0.00 50 1082.0
20260503004620 26 260 0.0 17.7 0.00 0.00 0.00 49 1081.9
20260503004120 26 307 0.0 17.7 0.00 0.00 0.00 53 1077.7
20260503003620 26 212 1.6 17.7 0.00 0.00 0.00 50 1063.0
20260503003120 26 268 0.0 17.7 0.00 0.00 0.00 49 1068.1
20260503002105 26 286 3.2 17.7 0.00 0.00 0.00 49 1082.4
20260503001605 26 247 3.2 17.7 0.00 0.00 0.00 48 1076.0
20260503001105 26 322 1.6 17.7 0.00 0.00 0.00 50 1076.0
20260503000605 26 231 1.6 17.7 0.00 0.00 0.00 49 1066.7
20260503000105 26 281 3.2 17.7 0.00 0.00 0.00 49 1078.2
20260502235605 26 270 1.6 17.7 0.00 0.00 0.00 49 1072.4
20260502235105 26 247 4.8 17.7 0.00 0.00 0.00 48 1070.4
20260502234605 26 251 4.8 19.3 0.00 0.00 0.00 49 1067.4
20260502234106 26 212 4.8 19.3 0.00 0.00 0.00 49 1061.4
20260502232536 25 222 3.2 19.3 0.00 0.00 0.00 49 1054.4
20260502232035 25 203 3.2 19.3 0.00 0.00 0.00 52 1050.9
20260502231535 25 284 3.2 19.3 0.00 0.00 0.00 52 1059.3
20260502231035 25 251 3.2 19.3 0.00 0.00 0.00 54 1060.4
20260502230536 25 209 4.8 19.3 0.00 0.00 0.00 51 1051.2
20260502230036 25 150 3.2 19.3 0.00 0.00 0.00 51 1050.2
20260502225535 25 113 3.2 19.3 0.00 0.00 0.00 53 1052.4
20260502225035 25 266 1.6 19.3 0.00 0.00 0.00 56 1061.8
20260502224021 25 291 1.6 19.3 0.00 0.00 0.00 53 1065.3